Hourly Data Report for July 11, 2021

BONAVISTA
NEWFOUNDLAND
Current Station Operator: ECCC - MSC

48°40'02.000" N
53°06'51.000" W
25.60 m
8400601
71178
AVA

Download Data

Hourly Data (July 2021)
Hourly Data Report for July 11, 2021
TIME
LST
Temp Definition
°C
Dew Point Definition
°C
Rel Hum Definition
%
Precip. Amount Definition
mm

Wind Dir Definition
10's deg

Wind Spd Definition
km/h
Visibility Definition
km
Stn Press Definition
kPa
Hmdx Definition


Wind Chill Definition


Weather Definition


00:30 12.1 11.4 95 0.0 25 17   101.30     LegendNANA
01:30 13.0 12.1 94 0.0 23 20   101.35     LegendNANA
02:30 13.4 12.2 92 0.0 22 12   101.39     LegendNANA
03:30 13.5 12.1 91 0.0 17 8   101.42     LegendNANA
04:30 13.0 12.0 94 0.0 14 13   101.47     LegendNANA
05:30 13.9 12.8 93 0.0 15 11   101.48     LegendNANA
06:30 14.7 13.4 92 0.0 14 8   101.51     LegendNANA
07:30 15.6 13.6 88 0.0 17 11   101.53     LegendNANA
08:30 16.7 13.5 81 0.0 14 16   101.50     LegendNANA
09:30 16.3 13.5 83 0.0 13 21   101.47     LegendNANA
10:30 17.6 14.2 80 0.0 14 31   101.45     LegendNANA
11:30 17.8 13.6 77 0.0 15 34   101.43     LegendNANA
12:30 16.8 13.3 80 0.0 15 36   101.39     LegendNANA
13:30 15.3 12.6 84 0.0 15 38   101.35     LegendNANA
14:30 15.6 12.0 79 0.0 15 37   101.34     LegendNANA
15:30 15.0 11.4 79 0.0 14 27   101.38     LegendNANA
16:30 14.4 11.3 82 0.0 15 27   101.37     LegendNANA
17:30 14.5 11.5 82 0.0 14 17   101.41     LegendNANA
18:30 12.8 11.3 90 0.0 14 15   101.45     LegendNANA
19:30 11.8 10.8 93 0.0 14 14   101.46     LegendNANA
20:30 11.0 10.3 96 0.0 14 11   101.47     LegendNANA
21:30 10.7 10.2 97 0.0 15 21   101.46     LegendNANA
22:30 11.0 10.6 98 0.0 16 31   101.43     LegendNANA
23:30 11.1 10.7 98 0.0 15 32   101.39     LegendNANA

Notes on Data Quality.

Legend

  • E = Estimated
  • M = Missing
  • NA = Not Available*
  • [empty] = Indicates an unobserved value
Date modified: